Terug naar catalogus

RASSVET-3 31

ActiefPO
NORAD 100097·PAYLOAD·🇷🇺 Russia

Gelanceerd Jul 19, 2026 vanaf Plesetsk Cosmodrome

Loading…

Volgende Passages (komende 24 uur)

TLE

VersSource: Space-Track

Epoch: Sep 14, 2026, 12:17 UTC

1 A0097U 26165Q   26257.51246185 -.00125371  00000-0 -17729-2 0  9999
2 A0097  82.2995 167.9132 0008636 333.9618  26.1201 15.56895087  8934

Volg RASSVET-3 31 in realtime met AllMySat

Download on the App Store